Date,TemperatureHighF,TemperatureAvgF,TemperatureLowF,DewpointHighF,DewpointAvgF,DewpointLowF,HumidityHigh,HumidityAvg,HumidityLow,PressureMaxIn,PressureMinIn,WindSpeedMaxMPH,WindSpeedAvgMPH,GustSpeedMaxMPH,PrecipitationSumIn
2013-8-1,82.6,74.3,70.4,76.4,71.3,67.8,95,90,76,29.93,29.85,0,0,0,0.00
2013-8-2,85.0,73.8,65.7,74.9,68.2,63.6,94,84,59,29.97,29.86,0,0,0,0.00
2013-8-3,83.3,74.2,65.7,73.6,69.3,63.0,94,85,66,30.00,29.94,0,0,0,0.00
2013-8-4,85.3,76.7,70.7,75.6,71.5,67.0,93,84,67,29.97,29.90,0,0,0,0.00
2013-8-5,84.1,73.9,66.4,75.1,68.8,63.8,93,84,63,29.99,29.91,0,0,0,0.00
2013-8-6,84.1,76.3,69.8,74.9,71.1,67.1,93,84,67,29.96,29.88,0,0,0,0.00
2013-8-7,74.7,73.9,71.1,72.4,71.4,68.9,94,92,88,29.99,29.91,0,0,0,0.00
2013-8-8,81.7,74.5,72.0,75.8,72.2,70.4,96,93,79,29.99,29.93,0,0,0,0.00
2013-8-9,87.1,79.2,71.8,76.8,73.8,70.0,95,84,64,30.03,29.94,0,0,0,0.00
2013-8-10,89.3,76.9,71.6,78.0,72.8,69.2,95,88,65,30.07,30.00,0,0,0,0.00
2013-8-11,87.7,77.4,70.4,76.7,72.2,68.6,95,85,65,30.10,29.99,0,0,0,0.00
2013-8-12,86.9,75.5,70.6,77.9,71.8,68.1,95,88,70,30.05,29.93,0,0,0,0.00
2013-8-13,82.4,74.7,69.5,75.4,71.3,67.7,95,90,73,29.95,29.82,0,0,0,0.00
2013-8-14,78.1,73.6,68.0,74.0,70.5,64.4,94,90,82,29.95,29.82,0,0,0,0.00
2013-8-15,72.2,69.0,67.0,66.7,63.2,60.0,91,82,70,30.01,29.93,0,0,0,0.00
2013-8-16,67.9,65.7,62.3,63.4,61.6,59.4,92,87,80,30.04,29.96,0,0,0,0.00
2013-8-17,67.0,64.9,63.0,64.6,61.7,59.5,93,89,84,30.07,30.00,0,0,0,0.00
2013-8-18,73.8,69.3,64.8,70.5,66.8,62.9,96,92,86,30.12,30.01,0,0,0,0.00
2013-8-19,78.1,72.0,68.0,73.4,69.4,66.4,95,92,85,30.07,29.98,0,0,0,0.00
2013-8-20,78.1,73.2,69.5,73.6,70.5,67.7,95,91,86,30.11,30.01,0,0,0,0.00
2013-8-21,80.6,73.9,69.5,74.1,70.9,67.3,95,90,78,30.16,30.04,0,0,0,0.00
2013-8-22,86.4,73.9,69.1,75.8,70.4,67.3,95,89,66,30.10,29.99,0,0,0,0.00
2013-8-23,85.3,74.6,66.6,76.1,70.3,64.8,95,87,69,30.03,29.91,0,0,0,0.00
2013-8-24,83.7,74.3,68.0,72.0,68.3,65.7,93,82,65,30.18,29.96,0,0,0,0.00
2013-8-25,80.5,71.9,63.9,68.1,63.8,60.1,90,77,57,30.29,30.17,0,0,0,0.00
2013-8-26,81.7,69.2,60.3,68.0,62.5,57.4,92,80,57,30.24,30.07,0,0,0,0.00
2013-8-27,83.2,72.0,61.0,71.9,66.2,58.1,93,82,61,30.10,29.97,0,0,0,0.00
2013-8-28,86.4,75.2,65.9,75.1,69.5,63.2,94,83,62,30.00,29.91,0,0,0,0.00
2013-8-29,77.4,71.6,69.8,72.4,68.7,67.1,93,91,84,29.95,29.91,0,0,0,0.00